Location: Unspecified
(0.0000°N, 0.0000°E)
Time: 21:06:20
(UTC+00:00)

Tiros 1 - Pass Details

Date: 26 October 2021
Orbit: 630 x 664 km, 48.4° (Epoch: 04 December)

Event Time Altitude Azimuth Distance (km) Brightness Sun altitude
Rises 18:29:41 0° 307° (NW) 2,907 11.1 -11.2°
Reaches altitude 10° 18:32:07 10° 300° (WNW) 1,999 10.4 -11.7°
Maximum altitude 18:36:23 38° 231° (SW) 956 8.6 -12.8°
Drops below altitude 10° 18:40:40 10° 163° (SSE) 2,002 9.6 -13.8°
Sets 18:43:07 0° 154° (SSE) 2,912 10.4 -14.4°
